[[{"header":{"parameterUnit":"m.s-1","parameterCategory":1,"la1":30.2991,"la2":30.254,"lo1":-89.0895,"lo2":-89.0444,"dx":0.0017,"dy":0.0017,"nx":28,"ny":28,"refTime":"2023-01-13T09:00:00:Z","depth":0,"parameterNumber":2,"parameterNumberName":"U-component_of_WINDS"},"data":[0,0,0,0,0,0,0,0,0,0,0,0,0,0,0,0,0,0,0,0,0,0,0,0,0,0,0,0,0,0,0,0,0,0,0,0,0,0,0,0,0,0,0,0,0,0,0,0,0,0,0,0,0,0,0,0,0,0,3.2246,3.2246,0,3.2261,3.2261,3.2261,3.2203,3.2201,3.22,3.2198,3.2211,3.2213,3.2215,0,0,0,0,0,0,0,0,0,0,0,0,0,3.2168,3.217,3.2246,3.2246,3.2247,3.2261,3.2261,3.2261,3.2203,3.2201,3.2199,3.2197,3.2211,3.2213,3.2215,0,0,0,0,0,0,0,0,0,0,0,0,0,3.2194,3.2171,3.2246,3.222,3.2217,3.2261,3.2261,3.2261,3.2204,3.2201,3.2199,3.2196,3.221,3.2213,3.2216,3.2285,0,0,3.2225,3.2226,0,0,0,0,0,0,0,0,3.2193,3.2197,3.2223,3.2221,3.2219,3.2228,3.2238,3.2269,3.2204,3.2209,3.2198,3.2195,3.2219,3.2221,3.2229,3.2286,3.2286,3.2225,3.2227,3.2228,3.2229,0,0,0,0,0,0,0,3.2191,3.2196,3.2252,3.2224,3.2221,3.2207,3.2208,3.2244,3.2228,3.2208,3.2204,3.2207,3.2217,3.2226,3.2229,3.2286,3.2225,3.2227,3.2229,3.223,3.2402,3.2404,0,0,0,0,0,0,3.2193,3.2195,3.2251,3.2252,3.22,3.221,3.2211,3.2227,3.2227,3.2225,3.2209,3.2204,3.2223,3.2226,3.2229,3.2311,3.2228,3.2231,3.2232,3.2399,3.2402,3.2405,0,0,0,0,0,0,3.2192,3.2199,3.2251,3.2223,3.2228,3.2214,3.2233,3.2229,3.2238,3.2228,3.2225,3.2221,3.2221,3.2225,3.2272,3.231,3.2232,3.2235,3.2396,3.24,3.2404,3.2475,0,0,0,0,0,0,3.219,3.2198,3.2224,3.2224,3.223,3.2294,3.2235,3.2231,3.2244,3.2237,3.2239,3.2236,3.2219,3.2268,3.2275,3.2313,3.2237,3.2392,3.2398,3.2403,3.2469,3.2481,3.2491,0,0,0,0,0,3.2187,3.2243,3.2226,3.2233,3.2262,3.2296,3.2299,3.2279,3.2247,3.2273,3.2267,3.2236,3.2306,3.2273,3.228,3.232,3.239,3.2396,3.2402,3.2464,3.2478,3.2491,0,0,0,0,0,0,3.2248,3.2242,3.2223,3.2281,3.229,3.2286,3.2318,3.2295,3.2312,3.2305,3.2278,3.2279,3.2331,3.233,3.2294,3.2388,3.2342,3.235,3.2386,3.24,3.2411,3.241,3.2239,0,0,0,0,0,3.2268,3.2296,3.229,3.2341,3.2346,3.2332,3.2346,3.2329,3.2337,3.234,3.2337,3.2345,3.2368,3.2384,3.2405,3.2469,3.2469,3.25,3.2511,3.252,3.2527,3.2562,3.2576,3.2426,3.2426,3.2426,0,0,3.2309,3.231,3.2329,3.2353,3.2358,3.2388,3.2335,3.2368,3.239,3.2344,3.2389,3.2387,3.2395,3.2451,3.2475,3.2451,3.2569,3.2528,3.2536,3.2538,3.257,3.2584,3.2597,3.243,3.243,3.2429,0,0,3.24,3.2404,3.2448,3.2454,3.2462,3.2452,3.2463,3.2464,3.2461,3.2506,3.2473,3.2498,3.2539,3.2546,3.2555,3.2651,3.2624,3.2659,3.2717,3.2751,3.2762,3.2773,3.2808,3.282,3.2666,3.2666,3.2667,0,3.2451,3.2495,3.2473,3.2509,3.2521,3.2483,3.2527,3.2534,3.2548,3.2557,3.2531,3.2583,3.2585,3.2643,3.2667,3.2675,3.2686,3.2658,3.2763,3.2773,3.2782,3.2815,3.2828,3.2671,3.267,3.267,3.2669,0,3.2557,3.2588,3.2622,3.2638,3.2654,3.2694,3.2679,3.2697,3.268,3.2674,3.272,3.2722,3.2743,3.2755,3.2738,3.2811,3.2796,3.2767,3.272,3.2801,3.2831,3.2844,3.2677,3.2675,3.2674,3.2673,0,0,3.2684,3.269,3.2703,3.271,3.2718,3.2741,3.278,3.2802,3.2818,3.283,3.2862,3.2899,3.2873,3.2883,3.2867,3.2897,3.2974,3.2863,3.2863,3.2884,3.3055,3.3076,3.3091,3.2956,3.2959,3.2961,3.3054,0,3.2774,3.2841,3.2823,3.289,3.2918,3.2884,3.2918,3.2926,3.2921,3.2945,3.294,3.2966,3.2929,3.2935,3.2963,3.2958,3.3008,3.2952,3.2986,3.2987,3.2985,3.3107,3.313,3.3218,3.3066,3.3068,3.3069,0,3.2886,3.2904,3.2974,3.2978,3.299,3.3021,3.304,3.3063,3.3072,3.3067,3.308,3.3058,3.3097,3.3051,3.3104,3.3066,3.3079,3.3079,3.3082,3.3084,3.3033,3.3112,3.3245,3.3259,3.3088,3.3086,3.3085,0,3.2973,3.3014,3.3062,3.3069,3.3075,3.3098,3.3101,3.3108,3.3123,3.314,3.3149,3.3171,3.3182,3.3199,3.3184,3.3152,3.324,3.3192,3.3236,3.3237,3.3256,3.3255,3.3393,3.3265,3.3265,3.3265,3.3264,0,3.3074,3.3119,3.3101,3.313,3.3179,3.3159,3.3208,3.3207,3.3214,3.3242,3.3214,3.3241,3.3219,3.3245,3.3234,3.328,3.3285,3.3282,3.3278,3.3284,3.3285,3.3292,3.3285,3.3268,3.3267,3.3267,3.3266,0,3.3179,3.3168,3.3218,3.3221,3.3222,3.3258,3.326,3.3287,3.3281,3.3318,3.3325,3.3316,3.3345,3.3332,3.3362,3.3354,3.3414,3.3402,3.3411,3.3408,3.3453,3.3449,3.36,3.3619,3.348,3.3481,3.3482,0,3.3244,3.3277,3.3284,3.3301,3.3307,3.3336,3.3351,3.3334,3.3351,3.3365,3.3391,3.3417,3.3438,3.3486,3.3481,3.3504,3.3493,3.3545,3.3496,3.3502,3.3494,3.3492,3.3495,3.3554,3.3555,3.3557,3.3558,0,3.336,3.3354,3.3378,3.3401,3.3421,3.3437,3.3452,3.3468,3.3451,3.3472,3.3501,3.3518,3.3549,3.3576,3.3597,3.36,3.3577,3.3574,3.3585,3.3591,3.3595,3.3594,3.3437,3.357,3.3569,3.3568,3.3567,3.3567,3.3447,3.3475,3.3485,3.3513,3.3522,3.3537,3.3563,3.3561,3.3586,3.3611,3.3599,3.3634,3.3644,3.367,3.3677,3.3704,3.3683,3.37,3.3704,3.3708,3.3714,3.3591,3.3707,3.3707,3.3707,3.3706,3.3706,0,3.3562,3.3567,3.3593,3.3615,3.3637,3.3615,3.363,3.365,3.3681,3.3692,3.3714,3.3749,3.3775,3.3774,3.3799,3.3821,3.3811,3.3828,3.3826,3.3827,3.3731,3.3718,3.3836,3.3836,3.3836,3.3836,3.3836,3.3835,3.3625,3.3672,3.3668,3.372,3.3725,3.3759,3.377,3.3784,3.3793,3.3833,3.3856,3.3855,3.3862,3.3887,3.3911,3.391,3.392,3.3941,3.3936,3.3846,3.3833,3.3821,3.3809,3.3944,3.3944,3.403,3.4031,3.4032]},{"header":{"parameterUnit":"m.s-1","parameterCategory":1,"la1":30.2991,"la2":30.254,"lo1":-89.0895,"lo2":-89.0444,"dx":0.0017,"dy":0.0017,"nx":28,"ny":28,"refTime":"2023-01-13T09:00:00:Z","depth":0,"parameterNumber":3,"parameterNumberName":"V-component_of_WINDS"},"data":[0,0,0,0,0,0,0,0,0,0,0,0,0,0,0,0,0,0,0,0,0,0,0,0,0,0,0,0,0,0,0,0,0,0,0,0,0,0,0,0,0,0,0,0,0,0,0,0,0,0,0,0,0,0,0,0,0,0,-7.3247,-7.3249,0,-7.3454,-7.3457,-7.3459,-7.3418,-7.3414,-7.341,-7.3407,-7.3616,-7.3625,-7.3634,0,0,0,0,0,0,0,0,0,0,0,0,0,-7.2812,-7.282,-7.3246,-7.3249,-7.3252,-7.3454,-7.3457,-7.346,-7.3419,-7.3414,-7.3409,-7.3405,-7.3613,-7.3624,-7.3635,0,0,0,0,0,0,0,0,0,0,0,0,0,-7.3008,-7.2823,-7.3246,-7.3256,-7.3259,-7.3453,-7.3457,-7.346,-7.342,-7.3414,-7.3408,-7.3403,-7.361,-7.3623,-7.3636,-7.3833,0,0,-7.3678,-7.3684,0,0,0,0,0,0,0,0,-7.2997,-7.3024,-7.3252,-7.3255,-7.3259,-7.3404,-7.338,-7.3585,-7.3421,-7.3358,-7.3407,-7.34,-7.355,-7.3568,-7.3619,-7.3843,-7.3852,-7.3679,-7.3687,-7.3693,-7.3697,0,0,0,0,0,0,0,-7.2984,-7.3015,-7.3328,-7.3255,-7.326,-7.3249,-7.3271,-7.3419,-7.3483,-7.3363,-7.3361,-7.3386,-7.3551,-7.3606,-7.3624,-7.3855,-7.3679,-7.3691,-7.3699,-7.3705,-7.4251,-7.4258,0,0,0,0,0,0,-7.2967,-7.3004,-7.3322,-7.3335,-7.3112,-7.3261,-7.3285,-7.3363,-7.3482,-7.3494,-7.3391,-7.3384,-7.3586,-7.3608,-7.3631,-7.3871,-7.3693,-7.3706,-7.3714,-7.4245,-7.4253,-7.426,0,0,0,0,0,0,-7.2958,-7.2996,-7.3314,-7.3169,-7.3209,-7.3275,-7.3363,-7.337,-7.3426,-7.3502,-7.3513,-7.3436,-7.3582,-7.3612,-7.3784,-7.3877,-7.3712,-7.3724,-7.4238,-7.4248,-7.4256,-7.435,0,0,0,0,0,0,-7.2946,-7.2993,-7.3069,-7.3171,-7.3216,-7.3464,-7.3368,-7.3379,-7.345,-7.3442,-7.3548,-7.3559,-7.358,-7.3764,-7.3797,-7.3893,-7.3735,-7.423,-7.4242,-7.4253,-7.4339,-7.4361,-7.4381,0,0,0,0,0,-7.293,-7.3086,-7.3073,-7.3112,-7.3313,-7.3469,-7.3495,-7.3517,-7.3458,-7.3534,-7.3584,-7.3556,-7.3861,-7.3782,-7.3819,-7.392,-7.4224,-7.4239,-7.4252,-7.4329,-7.4357,-7.438,0,0,0,0,0,0,-7.2992,-7.31,-7.3086,-7.328,-7.3366,-7.3462,-7.3559,-7.3545,-7.3649,-7.3637,-7.3659,-7.3683,-7.3858,-7.3906,-7.3815,-7.4117,-7.4034,-7.4057,-7.408,-7.4107,-7.4127,-7.4112,-7.3746,0,0,0,0,0,-7.3028,-7.3147,-7.3234,-7.3397,-7.3441,-7.3493,-7.3562,-7.3571,-7.366,-7.3696,-7.3758,-7.3845,-7.396,-7.4036,-7.4146,-7.4345,-7.4368,-7.4433,-7.4454,-7.4471,-7.4491,-7.46,-7.463,-7.4307,-7.4307,-7.4306,0,0,-7.3104,-7.3178,-7.3251,-7.3411,-7.3479,-7.3601,-7.3524,-7.3655,-7.3746,-7.3716,-7.3883,-7.3931,-7.4029,-7.4216,-7.4301,-7.4261,-7.4585,-7.4489,-7.4502,-7.4513,-7.4618,-7.4648,-7.4676,-7.4316,-7.4315,-7.4313,0,0,-7.3305,-7.3373,-7.3516,-7.3586,-7.369,-7.3724,-7.3758,-7.3857,-7.3888,-7.4056,-7.4036,-7.4144,-7.4342,-7.4413,-7.4476,-7.4705,-7.4683,-7.474,-7.485,-7.4956,-7.4982,-7.5004,-7.5087,-7.5116,-7.4759,-7.4759,-7.4759,0,-7.3386,-7.357,-7.3591,-7.3726,-7.3797,-7.3776,-7.3921,-7.3988,-7.4122,-7.4171,-7.4125,-7.4375,-7.4439,-7.4643,-7.4699,-7.4749,-7.4789,-7.4728,-7.4977,-7.5,-7.5021,-7.51,-7.5131,-7.4765,-7.4764,-7.4764,-7.4763,0,-7.3665,-7.3792,-7.3895,-7.4027,-7.411,-7.4249,-7.429,-7.4371,-7.4374,-7.4412,-7.4583,-7.466,-7.4787,-7.4835,-7.4838,-7.504,-7.5012,-7.4971,-7.4888,-7.5058,-7.5132,-7.5162,-7.4774,-7.4772,-7.477,-7.4768,0,0,-7.391,-7.4053,-7.409,-7.415,-7.4264,-7.4363,-7.4501,-7.4625,-7.4695,-7.4788,-7.4904,-7.5073,-7.5037,-7.5107,-7.5118,-7.5211,-7.5389,-7.5159,-7.5162,-7.52,-7.5616,-7.5646,-7.5681,-7.5375,-7.5381,-7.5386,-7.5608,0,-7.4122,-7.4367,-7.439,-7.4609,-7.4728,-7.4711,-7.4831,-7.4913,-7.4953,-7.5059,-7.5102,-7.5222,-7.5164,-7.5207,-7.5299,-7.5348,-7.5473,-7.5332,-7.5483,-7.5488,-7.546,-7.572,-7.5752,-7.5958,-7.5637,-7.5642,-7.5645,0,-7.4402,-7.4505,-7.4737,-7.4835,-7.4885,-7.4993,-7.511,-7.5211,-7.5304,-7.5326,-7.5406,-7.5405,-7.5546,-7.5458,-7.5653,-7.5557,-7.562,-7.5654,-7.5662,-7.5678,-7.5577,-7.5742,-7.6024,-7.6055,-7.5691,-7.5688,-7.5684,0,-7.4558,-7.4755,-7.4919,-7.4971,-7.5089,-7.5166,-7.5218,-7.5306,-7.538,-7.5481,-7.5529,-7.5646,-7.5709,-7.5799,-7.5829,-7.5761,-7.6023,-7.5937,-7.6046,-7.6045,-7.6102,-7.6098,-7.6398,-7.6142,-7.6141,-7.6141,-7.614,0,-7.4793,-7.4935,-7.4991,-7.5093,-7.5252,-7.5277,-7.5433,-7.5482,-7.556,-7.567,-7.5661,-7.5764,-7.5797,-7.5906,-7.593,-7.6088,-7.6117,-7.6139,-7.6143,-7.614,-7.6137,-7.6182,-7.6168,-7.6149,-7.6147,-7.6146,-7.6144,0,-7.4995,-7.5038,-7.5216,-7.5314,-7.5342,-7.5455,-7.5538,-7.5636,-7.5674,-7.5813,-7.5847,-7.5907,-7.6035,-7.6073,-7.6226,-7.6242,-7.6428,-7.642,-7.6397,-7.6398,-7.6505,-7.6494,-7.6845,-7.6892,-7.6604,-7.6607,-7.6609,0,-7.5142,-7.5251,-7.5361,-7.5435,-7.5491,-7.5609,-7.5685,-7.5714,-7.5793,-7.5908,-7.5991,-7.6118,-7.622,-7.6425,-7.6481,-7.6598,-7.6593,-7.6708,-7.661,-7.6604,-7.6596,-7.6589,-7.66,-7.6726,-7.6729,-7.6731,-7.6733,0,-7.5398,-7.5415,-7.5525,-7.5643,-7.5734,-7.5828,-7.5919,-7.5979,-7.6021,-7.611,-7.6241,-7.6321,-7.6478,-7.6604,-7.6723,-7.6776,-7.6763,-7.6764,-7.6795,-7.6793,-7.6776,-7.6787,-7.6448,-7.6756,-7.6753,-7.6752,-7.6751,-7.675,-7.5578,-7.5675,-7.5768,-7.5891,-7.5962,-7.6048,-7.6144,-7.6195,-7.6305,-7.6436,-7.6446,-7.6588,-7.6679,-7.6838,-7.6897,-7.7008,-7.6974,-7.702,-7.7031,-7.7042,-7.7052,-7.6758,-7.7029,-7.7029,-7.7028,-7.7028,-7.7027,0,-7.5835,-7.5894,-7.6007,-7.6135,-7.6232,-7.6211,-7.6311,-7.6393,-7.6518,-7.6604,-7.6706,-7.6857,-7.6979,-7.7046,-7.7167,-7.7243,-7.724,-7.7274,-7.7269,-7.7282,-7.7074,-7.7035,-7.7275,-7.7275,-7.7275,-7.7275,-7.7275,-7.7274,-7.598,-7.6143,-7.617,-7.6369,-7.6427,-7.6567,-7.6625,-7.6704,-7.6773,-7.6942,-7.7044,-7.7087,-7.7166,-7.7293,-7.7404,-7.742,-7.7465,-7.7504,-7.7516,-7.7321,-7.7296,-7.7272,-7.7235,-7.7513,-7.7514,-7.7715,-7.7717,-7.7718]}]]